Hourly Data Report for April 17, 2021

VANCOUVER INTL A
BRITISH COLUMBIA
Current Station Operator: NAVCAN

49°11'41.000" N
123°11'02.000" W
4.30 m
1108395
71892
YVR

Download Data

Hourly Data (April 2021)
Hourly Data Report for April 17, 2021
TIME
LST
Temp Definition
°C
Dew Point Definition
°C
Rel Hum Definition
%
Precip. Amount Definition
mm

Wind Dir Definition
10's deg

Wind Spd Definition
km/h
Visibility Definition
km
Stn Press Definition
kPa
Hmdx Definition


Wind Chill Definition


Weather Definition


00:00 9.1 4.8 74   33 4 24.1 102.22     LegendNANA
01:00 6.7 3.3 79   36 6 24.1 102.24     Clear
02:00 9.4 3.1 65   36 2 24.1 102.25     LegendNANA
03:00 6.9 3.6 79   36 2 24.1 102.28     LegendNANA
04:00 7.2 2.8 73   25 6 24.1 102.31     Clear
05:00 6.2 3.0 79   33 4 32.2 102.32     LegendNANA
06:00 7.5 4.4 80   10 13 40.2 102.34     LegendNANA
07:00 11.1 5.1 66   3 8 40.2 102.38     Clear
08:00 14.2 4.2 51   36 2 40.2 102.39     LegendNANA
09:00 15.5 6.4 54   32 5 40.2 102.39     LegendNANA
10:00 17.2 6.5 49   28 10 40.2 102.39     Clear
11:00 16.2 6.1 51   27 13 40.2 102.38     LegendNANA
12:00 16.6 8.6 59   27 12 40.2 102.35     LegendNANA
13:00 17.0 6.8 51   27 13 40.2 102.33     Clear
14:00 17.7 8.8 56   28 10 40.2 102.28     LegendNANA
15:00 18.6 9.1 53   29 9 40.2 102.20     LegendNANA
16:00 17.9 10.2 60   28 9 40.2 102.17     Clear
17:00 17.5 9.2 58   29 9 40.2 102.12     LegendNANA
18:00 15.5 8.6 63   28 8 40.2 102.06     LegendNANA
19:00 12.8 8.4 75   29 5 40.2 102.03     Clear
20:00 11.9 9.1 83   27 5 40.2 102.05     LegendNANA
21:00 11.2 10.5 96   22 7 32.2 102.05     LegendNANA
22:00 10.6 10.1 97   23 7 32.2 102.06     Clear
23:00 10.7 10.5 98   36 3 32.2 102.08     LegendNANA

Notes on Data Quality.

Legend

  • E = Estimated
  • M = Missing
  • NA = Not Available*
  • [empty] = Indicates an unobserved value
Date modified: